sat.trackr.live / text

‹ back to catalog

STARLINK-30365

NORAD 57734 · 2023-131C

PAYLOAD ACTIVE UNKNOWN

§ Identity

Operator
Country
US
Launch date
2023-09-01
Launch site
AFETR
Launch vehicle
Mass (kg)
RCS (m²)

Purposes: comms

External: N2YO · Heavens-Above · Gunter

§ Orbital elements

Epoch: 2026-09-20T09:35:54.232800Z

Period
94.27 min
Inclination
43.0025°
Eccentricity
0.0001230
Mean motion
15.27577785 rev/d
Perigee alt
482.2 km
Apogee alt
483.9 km
Semi-major
6,861.2 km
B*
2.2102e-5
RAAN
152.9077°
Arg perigee
272.9867°
Mean anomaly
87.0843°
Rev number
16,969

§ Raw data

STARLINK-303651 57734U 23131C   26263.39993325  .00000346  00000+0  22102-4 0  99912 57734  43.0025 152.9077 0001230 272.9867  87.0843 15.27577785169695

JSON: /api/v1/satellites/57734 · /tle

For live sub-satellite position, see the globe view (requires WebGL).

§ Visibility from observer

Set your observer location to see the next 7 days of passes ≥ 10°. The values pass through the URL so the page stays shareable.

No JS? Fill the form by hand. The geolocation button needs JavaScript.